Tracking 23440 objects as of 12-Jun-2021
HD Live streaming from Space Station
objects crossing your sky now

ARIANE 2 DEB

Track ARIANE 2 DEB now!


NORAD ID: 28566
Int'l Code: 1989-006AH
Perigee: 577.1 km
Apogee: 35,450.6 km
Inclination: 6.5 °
Period: 631.6 minutes
Semi major axis: 24384 km
RCS: 0.1259 m2 (medium)
Launch date: January 27, 1989
Source: France (FR)
Launch site: FRENCH GUIANA (FRGUI)

Note: This is SATELLITE DEBRIS
aabbcc
Your satellite tracking list
Your tracking list is empty




NASA's NSSDC Master Catalog

Two Line Element Set (TLE):
1 28566U 89006AH  21161.29481383  .00000100  00000-0  23831-2 0  9999
2 28566   6.5358 154.3492 7150648 321.6526   4.5940  2.27993456 70624
Source of the keplerian elements: AFSPC